Year,Month,Day,Hour,Minute,Value (Times are PST for temperature in C)
2017,12,15,10,19,6.90
2017,12,15,10,20,6.90
2017,12,15,10,21,6.90
2017,12,15,10,22,7.00
2017,12,15,10,23,7.00
2017,12,15,10,24,7.00
2017,12,15,10,25,7.00
2017,12,15,10,26,7.00
2017,12,15,10,27,7.00
2017,12,15,10,28,7.00
2017,12,15,10,29,7.00
2017,12,15,10,30,7.10
2017,12,15,10,31,7.10
2017,12,15,10,32,7.10
2017,12,15,10,33,7.10
2017,12,15,10,34,7.10
2017,12,15,10,35,7.10
2017,12,15,10,36,7.10
2017,12,15,10,37,7.10
2017,12,15,10,38,7.20
2017,12,15,10,39,7.20
2017,12,15,10,40,7.30
2017,12,15,10,41,7.30
2017,12,15,10,42,7.30
2017,12,15,10,43,7.40
2017,12,15,10,44,7.40
2017,12,15,10,45,7.50
2017,12,15,10,46,7.50
2017,12,15,10,47,7.60
2017,12,15,10,48,7.60
2017,12,15,10,49,7.70
2017,12,15,10,50,7.70
2017,12,15,10,51,7.80
2017,12,15,10,52,7.90
2017,12,15,10,53,7.90
2017,12,15,10,54,8.00
2017,12,15,10,55,8.10
2017,12,15,10,56,8.10
2017,12,15,10,57,8.20
2017,12,15,10,58,8.20
2017,12,15,10,59,8.30
2017,12,15,11,00,8.30
2017,12,15,11,01,8.30
2017,12,15,11,02,8.40
2017,12,15,11,03,8.40
2017,12,15,11,04,8.40
2017,12,15,11,05,8.40
2017,12,15,11,06,8.40
2017,12,15,11,07,8.40
2017,12,15,11,08,8.40
2017,12,15,11,09,8.40
2017,12,15,11,10,8.40
2017,12,15,11,11,8.40
2017,12,15,11,12,8.40
2017,12,15,11,13,8.40
2017,12,15,11,14,8.40
2017,12,15,11,15,8.40
2017,12,15,11,16,8.40
2017,12,15,11,17,8.30
2017,12,15,11,18,8.30
2017,12,15,11,19,8.30
2017,12,15,11,20,8.30
2017,12,15,11,21,8.30
2017,12,15,11,22,8.30
2017,12,15,11,23,8.30
2017,12,15,11,24,8.30
2017,12,15,11,25,8.30
2017,12,15,11,26,8.30
2017,12,15,11,27,8.30
2017,12,15,11,28,8.30
2017,12,15,11,29,8.30
2017,12,15,11,30,8.30
2017,12,15,11,31,8.30
2017,12,15,11,32,8.30
2017,12,15,11,33,8.40
2017,12,15,11,34,8.40
2017,12,15,11,35,8.40
2017,12,15,11,36,8.40
2017,12,15,11,37,8.40
2017,12,15,11,38,8.40
2017,12,15,11,39,8.40
2017,12,15,11,40,8.50
2017,12,15,11,41,8.50
2017,12,15,11,42,8.60
2017,12,15,11,43,8.60
2017,12,15,11,44,8.60
2017,12,15,11,45,8.70
2017,12,15,11,46,8.70
2017,12,15,11,47,8.70
2017,12,15,11,48,8.70
2017,12,15,11,49,8.70
2017,12,15,11,50,8.70
2017,12,15,11,51,8.70
2017,12,15,11,52,8.70
2017,12,15,11,53,8.70
2017,12,15,11,54,8.70
2017,12,15,11,55,8.70
2017,12,15,11,56,8.60
2017,12,15,11,57,8.60
2017,12,15,11,58,8.60
2017,12,15,11,59,8.60
2017,12,15,12,00,8.60
2017,12,15,12,01,8.60
2017,12,15,12,02,8.60
2017,12,15,12,03,8.60
2017,12,15,12,04,8.60
2017,12,15,12,05,8.60
2017,12,15,12,06,8.60
2017,12,15,12,07,8.60
2017,12,15,12,08,8.60
2017,12,15,12,09,8.60
2017,12,15,12,10,8.60
2017,12,15,12,11,8.60
2017,12,15,12,12,8.70
2017,12,15,12,13,8.70
2017,12,15,12,14,8.70
2017,12,15,12,15,8.70
2017,12,15,12,16,8.70
2017,12,15,12,17,8.80
2017,12,15,12,18,8.80
2017,12,15,12,19,8.80
2017,12,15,12,20,8.80
2017,12,15,12,21,8.80
2017,12,15,12,22,8.90
2017,12,15,12,23,8.90
2017,12,15,12,24,9.00
2017,12,15,12,25,9.00
2017,12,15,12,26,9.10
2017,12,15,12,27,9.10
2017,12,15,12,28,9.20
2017,12,15,12,29,9.20
2017,12,15,12,30,9.20
2017,12,15,12,31,9.20
2017,12,15,12,32,9.20
2017,12,15,12,33,9.30
2017,12,15,12,34,9.30
2017,12,15,12,35,9.30
2017,12,15,12,36,9.30
2017,12,15,12,37,9.30
2017,12,15,12,38,9.30
2017,12,15,12,39,9.30
2017,12,15,12,40,9.30
2017,12,15,12,41,9.30
2017,12,15,12,42,9.30
2017,12,15,12,43,9.30
2017,12,15,12,44,9.30
2017,12,15,12,45,9.30
2017,12,15,12,46,9.40
2017,12,15,12,47,9.40
2017,12,15,12,48,9.40
2017,12,15,12,49,9.40
2017,12,15,12,50,9.40
2017,12,15,12,51,9.40
2017,12,15,12,52,9.40
2017,12,15,12,53,9.40
2017,12,15,12,54,9.50
2017,12,15,12,55,9.50
2017,12,15,12,56,9.50
2017,12,15,12,57,9.50
2017,12,15,12,58,9.50
2017,12,15,12,59,9.50
2017,12,15,13,00,9.50
2017,12,15,13,01,9.50
2017,12,15,13,02,9.50
2017,12,15,13,03,9.50
2017,12,15,13,04,9.50
2017,12,15,13,05,9.50
2017,12,15,13,06,9.50
2017,12,15,13,07,9.50
2017,12,15,13,08,9.50
2017,12,15,13,09,9.60
2017,12,15,13,10,9.60
2017,12,15,13,11,9.60
2017,12,15,13,12,9.60
2017,12,15,13,13,9.60
2017,12,15,13,14,9.70
2017,12,15,13,15,9.70
2017,12,15,13,16,9.70
2017,12,15,13,17,9.70
2017,12,15,13,18,9.70
2017,12,15,13,19,9.70
2017,12,15,13,20,9.70
2017,12,15,13,21,9.60
2017,12,15,13,22,9.60
2017,12,15,13,23,9.60
2017,12,15,13,24,9.50
2017,12,15,13,25,9.50
2017,12,15,13,26,9.40
2017,12,15,13,27,9.40
2017,12,15,13,28,9.40
2017,12,15,13,29,9.40
2017,12,15,13,30,9.40
2017,12,15,13,31,9.40
2017,12,15,13,32,9.40
2017,12,15,13,33,9.40
2017,12,15,13,34,9.40
2017,12,15,13,35,9.50
2017,12,15,13,36,9.50
2017,12,15,13,37,9.50
2017,12,15,13,38,9.50
2017,12,15,13,39,9.60
2017,12,15,13,40,9.60
2017,12,15,13,41,9.60
2017,12,15,13,42,9.60
2017,12,15,13,43,9.70
2017,12,15,13,44,9.70
2017,12,15,13,45,9.70
2017,12,15,13,46,9.70
2017,12,15,13,47,9.80
2017,12,15,13,48,9.80
2017,12,15,13,49,9.70
2017,12,15,13,50,9.70
2017,12,15,13,51,9.70
2017,12,15,13,52,9.70
2017,12,15,13,53,9.70
2017,12,15,13,54,9.70
2017,12,15,13,55,9.70
2017,12,15,13,56,9.60
2017,12,15,13,57,9.60
2017,12,15,13,58,9.60
2017,12,15,13,59,9.60
2017,12,15,14,00,9.60
2017,12,15,14,01,9.60
2017,12,15,14,02,9.50
2017,12,15,14,03,9.50
2017,12,15,14,04,9.50
2017,12,15,14,05,9.50
2017,12,15,14,06,9.50
2017,12,15,14,07,9.50
2017,12,15,14,08,9.50
2017,12,15,14,09,9.40
2017,12,15,14,10,9.40
2017,12,15,14,11,9.40
2017,12,15,14,12,9.40
2017,12,15,14,13,9.40
2017,12,15,14,14,9.40
2017,12,15,14,15,9.40
2017,12,15,14,16,9.40
2017,12,15,14,17,9.40
2017,12,15,14,18,9.40
2017,12,15,14,19,9.40
2017,12,15,14,20,9.40
2017,12,15,14,21,9.40
2017,12,15,14,22,9.40
2017,12,15,14,23,9.40
2017,12,15,14,24,9.40
2017,12,15,14,25,9.40
2017,12,15,14,26,9.40
2017,12,15,14,27,9.40
2017,12,15,14,28,9.40
2017,12,15,14,29,9.40
2017,12,15,14,30,9.40
2017,12,15,14,31,9.40
2017,12,15,14,32,9.40
2017,12,15,14,33,9.40
2017,12,15,14,34,9.40
2017,12,15,14,35,9.40
2017,12,15,14,36,9.40
2017,12,15,14,37,9.40
2017,12,15,14,38,9.40
2017,12,15,14,39,9.40
2017,12,15,14,40,9.40
2017,12,15,14,41,9.40
2017,12,15,14,42,9.40
2017,12,15,14,43,9.40
2017,12,15,14,44,9.40
2017,12,15,14,45,9.50
2017,12,15,14,46,9.50
2017,12,15,14,47,9.50
2017,12,15,14,48,9.50
2017,12,15,14,49,9.50
2017,12,15,14,50,9.50
2017,12,15,14,51,9.50
2017,12,15,14,52,9.50
2017,12,15,14,53,9.50
2017,12,15,14,54,9.50
2017,12,15,14,55,9.50
2017,12,15,14,56,9.50
2017,12,15,14,57,9.50
2017,12,15,14,58,9.50
2017,12,15,14,59,9.50
2017,12,15,15,00,9.50
2017,12,15,15,01,9.50
2017,12,15,15,02,9.50
2017,12,15,15,03,9.50
2017,12,15,15,04,9.50
2017,12,15,15,05,9.40
2017,12,15,15,06,9.40
2017,12,15,15,07,9.40
2017,12,15,15,08,9.40
2017,12,15,15,09,9.40
2017,12,15,15,10,9.40
2017,12,15,15,11,9.40
2017,12,15,15,12,9.40
2017,12,15,15,13,9.40
2017,12,15,15,14,9.40
2017,12,15,15,15,9.40
2017,12,15,15,16,9.40
2017,12,15,15,17,9.40
2017,12,15,15,18,9.40
2017,12,15,15,19,9.40
2017,12,15,15,20,9.40
2017,12,15,15,21,9.40
2017,12,15,15,22,9.40
2017,12,15,15,23,9.40
2017,12,15,15,24,9.30
2017,12,15,15,25,9.30
2017,12,15,15,26,9.30
2017,12,15,15,27,9.30
2017,12,15,15,28,9.30
2017,12,15,15,29,9.30
2017,12,15,15,30,9.30
2017,12,15,15,31,9.30
2017,12,15,15,32,9.30
2017,12,15,15,33,9.30
2017,12,15,15,34,9.30
2017,12,15,15,35,9.20
2017,12,15,15,36,9.20
2017,12,15,15,37,9.20
2017,12,15,15,38,9.20
2017,12,15,15,39,9.20
2017,12,15,15,40,9.20
2017,12,15,15,41,9.20
2017,12,15,15,42,9.20
2017,12,15,15,43,9.20
2017,12,15,15,44,9.20
2017,12,15,15,45,9.30
2017,12,15,15,46,9.30
2017,12,15,15,47,9.30
2017,12,15,15,48,9.30
2017,12,15,15,49,9.30
2017,12,15,15,50,9.30
2017,12,15,15,51,9.30
2017,12,15,15,52,9.30
2017,12,15,15,53,9.30
2017,12,15,15,54,9.30
2017,12,15,15,55,9.30
2017,12,15,15,56,9.30
2017,12,15,15,57,9.30
2017,12,15,15,58,9.30
2017,12,15,15,59,9.30
2017,12,15,16,00,9.30
2017,12,15,16,01,9.20
2017,12,15,16,02,9.20
2017,12,15,16,03,9.20
2017,12,15,16,04,9.20
2017,12,15,16,05,9.20
2017,12,15,16,06,9.20
2017,12,15,16,07,9.20
2017,12,15,16,08,9.20
2017,12,15,16,09,9.20
2017,12,15,16,10,9.20
2017,12,15,16,11,9.20
2017,12,15,16,12,9.20
2017,12,15,16,13,9.20
2017,12,15,16,14,9.20
2017,12,15,16,15,9.20
2017,12,15,16,16,9.20
2017,12,15,16,17,9.20
2017,12,15,16,18,9.20
2017,12,15,16,19,9.20
2017,12,15,16,20,9.20
2017,12,15,16,21,9.20
2017,12,15,16,22,9.20
2017,12,15,16,23,9.20
2017,12,15,16,24,9.20
2017,12,15,16,25,9.20
2017,12,15,16,26,9.20
2017,12,15,16,27,9.20
2017,12,15,16,28,9.20
